Location: *
(51.4660°N, 0.3360°W)
Time: 05:23:29
(UTC+00:00)

CZ-2C R/B - Pass Details

Date: 19 September 2019
Orbit: 785 x 870 km, 98.3° (Epoch: 18 October)

Event Time Altitude Azimuth Distance (km) Brightness Sun altitude
Rises 21:51:12 0° 11° (N) 3,428 6.4 -31.1°
Reaches altitude 10° 21:53:37 10° 7° (N) 2,499 5.7 -31.3°
Maximum altitude 21:58:59 51° 293° (WNW) 1,078 3.4 -31.8°
Enters shadow 21:59:26 50° 276° (W) 1,095 3.4 -31.8°
